sat.trackr.live / text

‹ back to catalog

2025-292J

NORAD 67001 · 2025-292J

PAYLOAD ACTIVE UNKNOWN

§ Identity

Operator
Country
PRC
Launch date
2025-12-10
Launch site
JSC
Launch vehicle
Mass (kg)
RCS (m²)

External: N2YO · Heavens-Above · Gunter

§ Orbital elements

Epoch: 2026-09-20T10:58:53.392224Z

Period
95.54 min
Inclination
97.6272°
Eccentricity
0.0015710
Mean motion
15.07260905 rev/d
Perigee alt
533.7 km
Apogee alt
555.4 km
Semi-major
6,922.7 km
B*
1.5628e-4
RAAN
338.4348°
Arg perigee
36.1052°
Mean anomaly
324.1233°
Rev number
4,279

§ Raw data

2025-292J1 67001U 25292J   26263.45756241  .00002299  00000+0  15628-3 0  99932 67001  97.6272 338.4348 0015710  36.1052 324.1233 15.07260905 42798

JSON: /api/v1/satellites/67001 · /tle

For live sub-satellite position, see the globe view (requires WebGL).

§ Visibility from observer

Set your observer location to see the next 7 days of passes ≥ 10°. The values pass through the URL so the page stays shareable.

No JS? Fill the form by hand. The geolocation button needs JavaScript.